Weather reports worldwide

Advertisment
Pescara, Italy (16230): temperature & dewpoint: 31.05.2020 20:00:00 - 06.06.2020 20:00:00 (CEST)Pescara, Italy (16230): wind speed: 31.05.2020 20:00:00 - 06.06.2020 20:00:00 (CEST)Pescara, Italy (16230): wind direction: 31.05.2020 20:00:00 - 06.06.2020 20:00:00 (CEST)Pescara, Italy (16230): reduced air pressure: 31.05.2020 20:00:00 - 06.06.2020 20:00:00 (CEST)Pescara, Italy (16230): visibility: 31.05.2020 20:00:00 - 06.06.2020 20:00:00 (CEST)Pescara, Italy (16230): precipitation: 31.05.2020 20:00:00 - 06.06.2020 20:00:00 (CEST)
Date & Time tt [°C] td [°C] ff [km/h] ff [kn] dd ppp [hPa] vv [km] rr [mm]
06.06.2020 20:00:00 22,4 13,4 8 4 ENE 1007,3 10 -
06.06.2020 19:00:00 23,0 14,0 11 6 ENE - 10 -
06.06.2020 18:00:00 24,0 14,0 11 6 ENE - 10 -
06.06.2020 17:00:00 24,3 14,1 11 6 E 1007,4 10 0,0
06.06.2020 16:00:00 24,0 14,0 16 9 E - 10 -
06.06.2020 15:00:00 25,0 13,0 18 10 ENE - 10 -
06.06.2020 14:00:00 25,4 13,0 13 7 E 1007,3 10 -
06.06.2020 13:00:00 25,0 14,0 11 6 NE - 10 -
06.06.2020 12:00:00 24,0 14,0 8 4 E - 10 -
06.06.2020 11:00:00 23,2 15,1 5 3 NE 1008,0 10 0,0
06.06.2020 10:00:00 22,0 14,0 5 3 NNE - 10 -
06.06.2020 09:00:00 21,0 12,0 2 1 - - 10 -
06.06.2020 08:00:00 18,9 13,2 5 3 SW 1007,8 10 -
06.06.2020 07:00:00 15,0 13,0 8 4 SW - 10 -
06.06.2020 06:00:00 13,0 13,0 5 3 SW - 10 -
06.06.2020 05:00:00 12,9 12,4 9 5 SW 1006,2 10 0,0
06.06.2020 04:00:00 14,0 14,0 8 4 WSW - 10 -
06.06.2020 03:00:00 14,0 13,0 4 2 S - 10 -
06.06.2020 02:00:00 15,3 14,4 9 5 SW 1005,5 10 -
06.06.2020 01:00:00 16,0 15,0 5 3 WSW - 10 -
06.06.2020 00:00:00 17,0 16,0 8 4 W - 10 -
05.06.2020 23:00:00 17,4 16,1 8 4 SW 1004,7 10 0,0
05.06.2020 22:00:00 18,0 16,0 4 2 NW - 10 -
05.06.2020 21:00:00 20,0 15,0 5 3 NE - 10 -
05.06.2020 20:00:00 21,2 15,0 8 4 E 1002,7 10 -
05.06.2020 19:00:00 22,0 16,0 8 4 NNE - 10 -
05.06.2020 18:00:00 22,0 17,0 5 3 NNE - 10 -
05.06.2020 17:00:00 20,8 17,2 13 7 NE 1001,6 10 0,0
05.06.2020 16:00:00 21,0 18,0 18 10 NE - 10 -
05.06.2020 15:00:00 21,0 18,0 11 6 NE - 10 -
05.06.2020 14:00:00 21,0 18,0 8 4 N - 10 -
05.06.2020 13:00:00 21,0 18,0 5 3 NNW - 10 -
05.06.2020 12:00:00 20,0 18,0 5 3 NW - 10 -
05.06.2020 11:00:00 20,0 17,5 13 7 N 1000,5 10 0,0
05.06.2020 10:00:00 21,0 15,0 5 3 - - 10 -
05.06.2020 09:00:00 20,0 14,0 13 7 W - 10 -
05.06.2020 08:00:00 17,8 14,6 4 2 - 999,0 10 -
05.06.2020 07:00:00 20,0 16,0 9 5 SW - 10 -
05.06.2020 06:00:00 22,0 12,0 5 3 - - 10 -
05.06.2020 05:00:00 22,9 11,8 9 5 N 996,5 10 0,0
05.06.2020 04:00:00 21,0 11,0 16 9 E - 10 -
05.06.2020 03:00:00 20,0 11,0 11 6 SE - 10 -
05.06.2020 02:00:00 19,6 10,6 5 3 - 999,3 10 -
05.06.2020 01:00:00 22,0 10,0 11 6 SSE - 10 -
05.06.2020 00:00:00 23,0 10,0 13 7 S - 10 -
04.06.2020 23:00:00 23,7 10,3 18 10 WSW 1001,4 10 0,0
04.06.2020 22:00:00 24,0 10,0 4 2 - - 10 -
04.06.2020 21:00:00 24,0 10,0 5 3 SE - 10 -
04.06.2020 20:00:00 25,5 9,8 8 4 SSW 1001,6 10 -
04.06.2020 19:00:00 27,0 11,0 4 2 - - 10 -
04.06.2020 18:00:00 26,0 14,0 13 7 ESE - 10 -
04.06.2020 17:00:00 25,0 13,7 15 8 ENE 1002,9 10 0,0
04.06.2020 16:00:00 26,0 14,0 18 10 E - 10 -
04.06.2020 15:00:00 26,0 12,0 13 7 ESE - 10 -
04.06.2020 14:00:00 25,0 11,3 8 4 SW 1005,2 10 -
04.06.2020 13:00:00 23,0 11,0 15 8 SW - 10 -
04.06.2020 12:00:00 24,0 9,0 15 8 WSW - 10 -
04.06.2020 11:00:00 24,4 8,5 26 14 WSW 1005,6 10 0,0
04.06.2020 10:00:00 25,0 8,0 28 15 SW - 10 -
04.06.2020 09:00:00 25,0 9,0 16 9 SSW - 10 -
04.06.2020 08:00:00 23,7 8,6 21 11 SSW 1005,6 10 -
04.06.2020 07:00:00 21,0 9,0 11 6 SSW - 10 -
04.06.2020 06:00:00 20,0 9,0 15 8 SW - 10 -
04.06.2020 05:00:00 19,2 9,0 15 8 WSW 1005,9 10 0,0
04.06.2020 04:00:00 20,0 9,0 11 6 SW - 10 -
04.06.2020 03:00:00 20,0 10,0 5 3 WSW - 10 -
04.06.2020 02:00:00 21,1 10,1 11 6 WSW 1007,0 10 -
04.06.2020 01:00:00 21,0 11,0 13 7 W - 10 -
04.06.2020 00:00:00 22,0 11,0 21 11 WSW - 10 -
03.06.2020 23:00:00 22,2 10,7 9 5 WSW 1008,0 10 0,0
03.06.2020 22:00:00 22,0 11,0 9 5 WSW - 10 -
03.06.2020 21:00:00 23,0 10,0 16 9 W - 10 -
03.06.2020 20:00:00 23,3 10,3 15 8 SW 1007,6 10 -
03.06.2020 19:00:00 25,0 11,0 16 9 SW - 10 -
03.06.2020 18:00:00 26,0 11,0 8 4 WSW - 10 -
03.06.2020 17:00:00 23,9 11,2 9 5 NNW 1008,1 10 0,0
03.06.2020 16:00:00 24,0 12,0 15 8 NE - 10 -
03.06.2020 15:00:00 26,0 10,0 13 7 E - 10 -
03.06.2020 14:00:00 26,2 10,8 22 12 E 1008,5 10 -
03.06.2020 13:00:00 26,0 12,0 18 10 E - 10 -
03.06.2020 12:00:00 25,0 14,0 18 10 ENE - 10 -
03.06.2020 11:00:00 26,0 10,3 5 3 S 1009,8 10 0,0
03.06.2020 10:00:00 24,0 11,0 9 5 SW - 10 -
03.06.2020 09:00:00 22,0 12,0 8 4 SW - 10 -
03.06.2020 08:00:00 18,7 12,1 5 3 W 1010,9 10 -
03.06.2020 07:00:00 14,0 11,0 5 3 SW - 10 -
03.06.2020 06:00:00 11,0 9,0 5 3 SW - 10 -
03.06.2020 05:00:00 10,6 9,3 9 5 SW 1010,8 10 0,0
03.06.2020 04:00:00 11,0 9,0 9 5 SW - 10 -
03.06.2020 03:00:00 12,0 10,0 8 4 SSW - 10 -
03.06.2020 02:00:00 12,2 9,9 8 4 SSW 1011,7 10 -
03.06.2020 01:00:00 13,0 10,0 8 4 SW - 10 -
03.06.2020 00:00:00 15,0 11,0 8 4 WSW - 10 -
02.06.2020 23:00:00 16,2 10,8 8 4 WSW 1012,4 10 0,0
02.06.2020 22:00:00 17,0 11,0 5 3 SSW - 10 -
02.06.2020 21:00:00 19,0 11,0 4 2 - - 10 -
02.06.2020 20:00:00 22,6 9,2 4 2 NE 1011,9 10 -
02.06.2020 19:00:00 23,0 9,0 9 5 ENE - 10 -
02.06.2020 18:00:00 24,0 9,0 11 6 ENE - 10 -
02.06.2020 17:00:00 23,8 9,0 15 8 ENE 1012,7 10 0,0
02.06.2020 16:00:00 24,0 10,0 15 8 ENE - 10 -
02.06.2020 15:00:00 24,0 10,0 16 9 E - 10 -
02.06.2020 14:00:00 24,1 9,8 15 8 ENE 1014,4 10 -
02.06.2020 13:00:00 23,0 10,0 13 7 ENE - 10 -
02.06.2020 12:00:00 23,0 10,0 15 8 NE - 10 -
02.06.2020 11:00:00 23,1 9,4 9 5 N 1015,5 10 0,0
02.06.2020 10:00:00 22,0 11,0 5 3 - - 10 -
02.06.2020 09:00:00 19,0 10,0 9 5 SW - 10 -
02.06.2020 08:00:00 17,0 11,1 11 6 WSW 1016,3 10 -
02.06.2020 07:00:00 13,0 10,0 9 5 SW - 10 -
02.06.2020 06:00:00 10,0 9,0 8 4 SSW - 10 -
02.06.2020 05:00:00 10,9 9,7 11 6 WSW 1016,2 10 0,0
02.06.2020 04:00:00 12,0 10,0 5 3 WSW - 10 -
02.06.2020 03:00:00 12,0 10,0 5 3 WSW - 10 -
02.06.2020 02:00:00 11,7 10,4 9 5 SW 1017,5 10 -
02.06.2020 01:00:00 13,0 11,0 9 5 SW - 10 -
02.06.2020 00:00:00 14,0 12,0 5 3 WSW - 10 -
01.06.2020 23:00:00 15,2 11,7 11 6 SW 1017,4 10 0,0
01.06.2020 22:00:00 15,0 12,0 5 3 WSW - 10 -
01.06.2020 21:00:00 18,0 12,0 5 3 WNW - 10 -
01.06.2020 20:00:00 18,9 11,6 9 5 NNE 1017,1 10 -
01.06.2020 19:00:00 21,0 10,0 8 4 N - 10 -
01.06.2020 18:00:00 21,0 10,0 15 8 NNE - 10 -
01.06.2020 17:00:00 20,5 11,8 18 10 NNE 1017,3 10 0,0
01.06.2020 16:00:00 21,0 12,0 22 12 NNE - 10 -
01.06.2020 15:00:00 21,0 12,0 21 11 NNE - 10 -
01.06.2020 14:00:00 20,9 11,7 16 9 NNE 1017,7 10 -
01.06.2020 13:00:00 21,0 11,0 21 11 N - 10 -
01.06.2020 12:00:00 20,0 9,0 21 11 N - 10 -
01.06.2020 11:00:00 19,9 9,7 26 14 N 1017,7 10 0,0
01.06.2020 10:00:00 19,0 8,0 21 11 N - 10 -
01.06.2020 09:00:00 19,0 10,0 13 7 N - 10 -
01.06.2020 08:00:00 16,0 10,6 13 7 SW 1017,4 10 -
01.06.2020 07:00:00 13,0 11,0 9 5 WSW - 10 -
01.06.2020 06:00:00 12,0 11,0 8 4 WSW - 10 -
01.06.2020 05:00:00 12,7 11,4 11 6 WSW 1016,3 10 0,0
01.06.2020 04:00:00 14,0 12,0 9 5 WSW - 10 -
01.06.2020 03:00:00 14,0 12,0 5 3 WSW - 10 -
01.06.2020 02:00:00 13,7 12,4 9 5 WSW 1016,7 10 -
01.06.2020 01:00:00 15,0 13,0 5 3 WSW - 10 -
01.06.2020 00:00:00 15,0 13,0 9 5 SW - 10 -
31.05.2020 23:00:00 14,9 12,8 11 6 SW 1016,5 10 0,0
31.05.2020 22:00:00 15,0 12,0 11 6 SW - 10 -
31.05.2020 21:00:00 15,0 12,0 11 6 SW - 10 -
31.05.2020 20:00:00 15,6 11,4 13 7 WSW 1015,9 10 -

tt = temperature
td = dewpoint
ff = wind speed
dd = wind direction
ppp = reduced air pressure
vv = visibility
rr = precipitation

Next stations